DW6683 Weather Reports


time (UTC)temp
F
wind
direction
speed
knots
gust
knots
rain 1hr
in
rain 24hr
in
rain mn
in
humidity
%
barometer
mb
20260901125100 75 130 0.0 0.9 0.00 0.25 0.00 91 1012.9
20260901124604 75 130 0.0 2.6 0.00 0.25 0.00 91 1012.9
20260901124059 75 241 0.0 1.7 0.00 0.25 0.00 91 1012.8
20260901123600 75 126 0.0 1.7 0.00 0.25 0.00 91 1012.7
20260901123058 75 239 0.0 1.7 0.00 0.25 0.00 91 1012.7
20260901122558 75 224 0.0 1.7 0.00 0.25 0.00 91 1012.7
20260901122056 75 157 0.0 1.7 0.00 0.25 0.00 93 1012.7
20260901121603 74 175 0.0 0.0 0.00 0.25 0.00 93 1012.5
20260901121054 73 154 0.0 0.9 0.00 0.25 0.00 95 1012.5
20260901120553 73 152 0.0 1.7 0.00 0.25 0.00 95 1012.5
20260901120053 72 128 0.0 1.7 0.00 0.25 0.00 95 1012.3
20260901115553 73 138 0.0 0.0 0.00 0.25 0.00 95 1012.3
20260901115056 72 138 0.0 0.9 0.00 0.25 0.00 96 1012.3
20260901114553 72 167 0.0 1.7 0.00 0.25 0.00 96 1012.4
20260901114051 72 143 0.0 1.7 0.00 0.25 0.00 96 1012.2
20260901113551 71 138 0.0 1.7 0.00 0.25 0.00 97 1012.0
20260901113051 71 146 0.0 1.7 0.00 0.25 0.00 97 1012.0
20260901112549 71 139 0.9 1.7 0.00 0.25 0.00 97 1011.9
20260901112050 71 139 0.0 0.9 0.00 0.25 0.00 97 1012.1
20260901111550 71 136 0.0 0.9 0.00 0.25 0.00 97 1012.0
20260901111050 71 143 0.0 0.9 0.00 0.25 0.00 97 1012.0
20260901110549 71 144 0.0 0.9 0.00 0.25 0.00 97 1012.0
20260901110050 71 149 0.0 0.0 0.00 0.25 0.00 97 1012.0
20260901105551 71 149 0.0 0.9 0.00 0.25 0.00 97 1012.0
20260901105051 71 159 0.0 0.9 0.00 0.25 0.00 97 1012.0
20260901104550 71 159 0.0 0.9 0.00 0.25 0.00 97 1011.9
20260901104048 71 159 0.0 0.9 0.00 0.25 0.00 97 1011.9
20260901103548 71 131 0.0 0.9 0.00 0.25 0.00 97 1011.8
20260901103047 71 132 0.0 0.0 0.00 0.25 0.00 97 1011.8
20260901102547 71 132 0.0 0.0 0.00 0.25 0.00 97 1011.9
20260901102047 71 132 0.0 0.0 0.00 0.25 0.00 97 1011.9
20260901101601 71 132 0.0 0.0 0.00 0.25 0.00 97 1011.9
20260901101046 71 134 0.0 0.0 0.00 0.25 0.00 97 1011.9
20260901100549 71 134 0.0 0.0 0.00 0.25 0.00 97 1012.0
20260901100051 71 146 0.0 0.9 0.00 0.25 0.00 97 1012.0
20260901095547 71 161 0.0 0.9 0.00 0.25 0.00 97 1011.9
20260901095046 71 188 0.0 0.0 0.00 0.25 0.00 97 1011.8
20260901094546 71 187 0.0 0.0 0.00 0.25 0.00 97 1011.8
20260901094045 71 187 0.0 0.0 0.00 0.25 0.00 97 1011.7
20260901093544 71 187 0.0 0.0 0.00 0.25 0.00 97 1011.8
20260901093043 71 187 0.0 0.0 0.00 0.25 0.00 96 1011.8
20260901092544 71 188 0.0 0.0 0.00 0.25 0.00 96 1011.9
20260901092044 71 188 0.0 0.0 0.00 0.25 0.00 96 1011.8
20260901091553 72 188 0.0 0.0 0.00 0.25 0.00 96 1011.7
20260901091040 72 188 0.0 0.0 0.00 0.25 0.00 95 1011.7
20260901090540 72 205 0.0 0.0 0.00 0.25 0.00 95 1011.7
20260901090040 72 205 0.0 0.0 0.00 0.25 0.00 95 1011.7
20260901085540 73 205 0.0 0.0 0.00 0.25 0.00 95 1011.7
20260901085040 73 205 0.0 0.0 0.00 0.25 0.00 95 1011.6
20260901084542 73 205 0.0 0.0 0.00 0.25 0.00 95 1011.7
20260901084040 73 139 0.0 0.9 0.00 0.25 0.00 94 1011.6
20260901083540 73 140 0.0 0.9 0.00 0.25 0.00 94 1011.5
20260901083043 73 258 0.0 1.7 0.00 0.25 0.00 94 1011.6
20260901082538 73 146 0.0 1.7 0.00 0.25 0.00 94 1011.6
20260901082040 73 224 0.0 2.6 0.00 0.25 0.00 94 1011.7
20260901081538 73 226 0.0 2.6 0.00 0.25 0.00 94 1011.6
20260901081038 73 200 0.0 0.9 0.00 0.25 0.00 94 1011.7
20260901080541 73 245 0.0 1.7 0.00 0.25 0.00 94 1011.6
20260901080130 73 213 0.0 2.6 0.00 0.25 0.00 94 1011.6
20260901075537 73 226 0.0 2.6 0.00 0.25 0.00 94 1011.7
20260901075037 73 181 0.0 3.5 0.00 0.25 0.00 94 1011.6
20260901074537 73 221 0.0 3.5 0.00 0.25 0.00 95 1011.6
20260901074036 73 152 0.0 0.9 0.00 0.25 0.00 95 1011.6
20260901073536 73 155 0.0 0.9 0.00 0.25 0.00 95 1011.6
20260901073035 73 243 0.0 0.9 0.00 0.25 0.00 95 1011.6
20260901072535 73 181 0.0 1.7 0.00 0.25 0.00 95 1011.6
20260901072036 73 224 0.0 1.7 0.00 0.25 0.00 95 1011.6
20260901071539 73 134 0.0 0.9 0.00 0.25 0.00 94 1011.6
20260901071034 73 149 0.0 0.9 0.00 0.25 0.00 94 1011.6
20260901070534 73 131 0.0 0.9 0.00 0.25 0.00 95 1011.6
20260901070036 73 133 0.0 0.9 0.00 0.25 0.00 94 1011.6
20260901065534 73 148 0.0 1.7 0.00 0.25 0.00 94 1011.6
20260901065034 73 207 0.0 1.7 0.00 0.25 0.00 94 1011.7
20260901064534 73 150 0.0 1.7 0.00 0.25 0.00 95 1011.7
20260901064033 73 142 0.0 0.9 0.00 0.25 0.00 95 1011.6
20260901063531 73 151 0.0 0.0 0.00 0.25 0.00 95 1011.7
20260901063036 73 202 0.0 0.0 0.00 0.25 0.00 95 1011.7
20260901062527 73 232 0.0 0.0 0.00 0.25 0.00 94 1011.7
20260901062026 73 186 0.0 0.0 0.00 0.25 0.00 94 1011.7
20260901061525 73 231 0.0 0.0 0.00 0.25 0.00 94 1011.8
20260901061024 73 230 0.0 0.0 0.00 0.25 0.00 94 1011.8
20260901060522 73 231 0.0 0.0 0.00 0.25 0.00 94 1011.8
20260901060020 73 232 0.0 0.0 0.00 0.25 0.00 94 1011.9
20260901055519 73 148 0.0 0.9 0.00 0.25 0.00 94 1011.9
20260901055020 73 124 0.0 0.9 0.00 0.25 0.00 95 1011.9
20260901054517 73 204 0.0 0.9 0.00 0.25 0.00 95 1012.0
20260901054017 73 152 0.0 0.9 0.00 0.25 0.00 95 1012.0
20260901053517 72 136 0.0 0.9 0.00 0.25 0.00 95 1012.0
20260901053017 72 134 0.0 0.0 0.00 0.25 0.00 95 1012.1
20260901052516 72 134 0.0 0.0 0.00 0.25 0.00 95 1012.1
20260901052015 72 134 0.0 0.0 0.00 0.25 0.00 95 1012.0
20260901051516 72 134 0.0 0.0 0.00 0.25 0.00 95 1012.0
20260901051015 72 134 0.0 0.0 0.00 0.25 0.00 95 1012.0
20260901050515 72 134 0.0 0.9 0.00 0.25 0.00 95 1011.9
20260901050015 72 134 0.0 0.9 0.00 0.25 0.00 95 1011.9
20260901045514 72 134 0.0 0.0 0.00 0.25 0.00 95 1012.1
20260901045014 72 134 0.0 0.0 0.00 0.25 0.00 95 1012.1
20260901044514 72 134 0.0 0.0 0.00 0.25 0.00 95 1012.0
20260901044014 72 134 0.0 0.9 0.00 0.25 0.00 95 1011.9
20260901043514 72 134 0.0 0.0 0.00 0.25 0.00 95 1011.9
20260901043024 72 134 0.0 0.9 0.00 0.25 0.00 95 1011.9
20260901042512 73 134 0.0 0.9 0.00 0.25 0.00 95 1012.0
20260901042011 73 134 0.0 0.0 0.00 0.25 0.00 94 1012.0
20260901041514 73 134 0.0 0.9 0.00 0.25 0.00 94 1012.0
20260901041008 73 134 0.0 0.9 0.00 0.25 0.00 94 1012.0
20260901040507 73 134 0.0 0.9 0.00 0.25 0.00 93 1012.0
20260901040008 73 134 0.0 0.9 0.00 0.25 0.00 93 1012.0
20260901035505 73 134 0.0 0.9 0.00 0.25 0.25 93 1012.0
20260901035006 73 135 0.0 0.0 0.00 0.25 0.25 93 1012.1
20260901034505 74 135 0.0 0.0 0.00 0.25 0.25 92 1012.2
20260901034005 74 135 0.0 0.0 0.00 0.25 0.25 92 1012.2
20260901033505 74 135 0.0 0.0 0.00 0.25 0.25 91 1012.2
20260901033004 74 135 0.0 0.0 0.00 0.25 0.25 91 1012.2
20260901032504 75 135 0.0 0.0 0.00 0.25 0.25 91 1012.2
20260901032004 75 135 0.0 0.0 0.00 0.25 0.25 91 1012.1
20260901031504 75 135 0.0 0.0 0.00 0.25 0.25 90 1012.2
20260901031003 75 135 0.0 0.0 0.00 0.25 0.25 90 1012.1
20260901030503 75 135 0.0 0.0 0.00 0.25 0.25 89 1012.1
20260901030003 75 135 0.0 0.9 0.00 0.25 0.25 89 1012.0
20260901025506 76 134 0.0 0.9 0.00 0.25 0.25 89 1011.9
20260901025003 76 245 0.0 0.9 0.00 0.25 0.25 88 1011.8
20260901024504 76 245 0.0 0.9 0.00 0.25 0.25 88 1011.8
20260901024005 76 243 0.0 1.7 0.00 0.25 0.25 88 1011.9
20260901023503 76 91 0.0 1.7 0.00 0.25 0.25 88 1011.7
20260901023002 76 121 0.0 2.6 0.00 0.25 0.25 87 1011.7
20260901022503 76 150 0.0 2.6 0.00 0.25 0.25 87 1011.8
20260901022002 76 233 0.0 2.6 0.00 0.25 0.25 87 1011.9
20260901021502 77 236 0.0 2.6 0.00 0.25 0.25 87 1012.0
20260901021003 77 245 0.0 4.3 0.00 0.25 0.25 87 1012.1
20260901020503 76 125 0.9 4.3 0.00 0.25 0.25 87 1012.0
20260901020002 76 226 0.9 4.3 0.00 0.25 0.25 88 1012.0
20260901015501 76 195 0.0 2.6 0.00 0.25 0.25 89 1011.9
20260901015002 76 229 0.0 0.9 0.00 0.25 0.25 89 1012.0
20260901014501 76 123 0.0 0.9 0.00 0.25 0.25 89 1012.1
20260901014001 76 224 0.0 0.9 0.00 0.25 0.25 89 1012.2
20260901013501 76 252 0.0 0.0 0.00 0.25 0.25 88 1012.1
20260901013120 76 252 0.0 0.9 0.00 0.25 0.25 88 1012.0
20260901012601 76 252 0.0 0.9 0.00 0.25 0.25 88 1011.8
20260901012059 76 252 0.0 0.9 0.00 0.25 0.25 87 1012.0
20260901011600 77 252 0.0 1.7 0.00 0.25 0.25 87 1011.9
20260901011100 77 231 0.0 1.7 0.00 0.25 0.25 87 1011.9
20260901010600 77 122 0.0 1.7 0.00 0.25 0.25 86 1011.6
20260901010059 77 179 0.0 1.7 0.00 0.25 0.25 86 1011.8
20260901005559 77 140 0.0 3.5 0.00 0.25 0.25 86 1011.7
20260901005058 77 237 0.0 3.5 0.00 0.25 0.25 85 1011.9
20260901004559 78 240 0.0 2.6 0.00 0.25 0.25 85 1011.9
20260901004102 78 242 0.0 1.7 0.00 0.25 0.25 85 1011.8
20260901003558 78 231 0.0 3.5 0.00 0.25 0.25 85 1011.7
20260901003058 78 284 0.0 3.5 0.00 0.25 0.25 84 1011.8
20260901002558 78 281 0.9 2.6 0.00 0.25 0.25 84 1011.7
20260901002058 78 264 0.0 3.5 0.00 0.25 0.25 83 1011.8
20260901001604 79 190 0.9 5.2 0.00 0.25 0.25 83 1011.8
20260901001058 79 274 0.0 5.2 0.00 0.25 0.25 82 1011.8
20260901000557 79 271 1.7 7.8 0.00 0.25 0.25 82 1011.7
20260901000057 79 235 2.6 7.8 0.00 0.25 0.25 81 1011.7
20260831235557 80 281 1.7 6.1 0.00 0.25 0.25 80 1011.7
20260831235100 80 234 2.6 7.8 0.00 0.25 0.25 80 1011.5
20260831234558 80 310 3.5 7.8 0.00 0.25 0.25 79 1011.4
20260831234104 81 224 2.6 7.0 0.00 0.25 0.25 79 1011.2
20260831233557 81 238 2.6 7.0 0.00 0.25 0.25 78 1011.2
20260831233055 81 276 1.7 4.3 0.00 0.25 0.25 78 1011.2
20260831232555 81 231 1.7 6.1 0.00 0.25 0.25 78 1011.2
20260831232055 80 278 2.6 6.1 0.00 0.25 0.25 79 1011.3
20260831231605 80 251 0.9 5.2 0.00 0.25 0.25 79 1011.4
20260831231054 80 221 2.6 5.2 0.00 0.25 0.25 79 1011.4
20260831230554 80 221 1.7 5.2 0.00 0.25 0.25 78 1011.3
20260831230100 80 257 0.9 4.3 0.00 0.25 0.25 78 1011.3
20260831225554 81 267 0.9 3.5 0.00 0.25 0.25 78 1011.3
20260831225054 81 216 0.9 4.3 0.00 0.25 0.25 78 1011.3
20260831224624 81 264 1.7 5.2 0.00 0.25 0.25 77 1011.1
20260831224054 81 268 1.7 7.0 0.00 0.25 0.25 77 1011.0
20260831223554 81 271 1.7 9.6 0.00 0.25 0.25 77 1010.9
20260831223053 81 276 2.6 7.8 0.00 0.25 0.25 77 1010.8
20260831222552 81 225 2.6 7.0 0.00 0.25 0.25 77 1010.9
20260831222052 82 158 1.7 4.3 0.00 0.25 0.25 77 1010.9
20260831221600 82 228 0.9 8.7 0.00 0.25 0.25 77 1010.9
20260831221052 82 280 4.3 8.7 0.00 0.25 0.25 77 1011.0
20260831220552 82 283 2.6 7.8 0.00 0.25 0.25 76 1011.1
20260831220054 82 255 2.6 7.0 0.00 0.25 0.25 77 1011.1
20260831215552 82 223 3.5 6.1 0.00 0.25 0.25 79 1011.1
20260831215052 83 310 2.6 7.0 0.00 0.25 0.25 80 1011.1
20260831214551 83 224 2.6 7.0 0.00 0.25 0.25 80 1011.1
20260831214054 83 191 1.7 5.2 0.00 0.25 0.25 81 1011.2
20260831213550 82 266 1.7 5.2 0.00 0.25 0.25 81 1011.2
20260831213050 82 240 0.0 5.2 0.00 0.25 0.25 82 1011.2
20260831212550 81 236 0.9 7.0 0.00 0.25 0.25 82 1011.2
20260831212049 81 214 2.6 7.0 0.00 0.25 0.25 82 1011.1
20260831211604 80 246 1.7 7.0 0.00 0.25 0.25 84 1011.1
20260831211048 79 293 1.7 5.2 0.00 0.25 0.25 86 1011.1
20260831210548 77 137 0.9 7.8 0.03 0.25 0.25 89 1011.0
20260831210056 76 254 1.7 7.8 0.03 0.25 0.25 89 1011.0
20260831205549 75 118 2.6 7.0 0.03 0.25 0.25 90 1010.9
20260831205047 75 108 0.9 5.2 0.03 0.25 0.25 90 1011.0
20260831204547 75 109 0.9 4.3 0.03 0.25 0.25 90 1011.3
20260831204047 75 148 1.7 5.2 0.03 0.25 0.25 90 1011.3
20260831203547 75 115 2.6 5.2 0.04 0.25 0.25 89 1011.3
20260831203049 74 124 0.0 3.5 0.10 0.25 0.25 90 1011.3
20260831202546 74 103 0.9 3.5 0.10 0.25 0.25 89 1011.2
20260831202047 74 184 0.0 3.5 0.14 0.25 0.25 89 1011.3
20260831201546 75 138 0.0 3.5 0.16 0.25 0.25 89 1011.5
20260831201046 75 151 1.7 6.1 0.16 0.25 0.25 88 1011.3
20260831200546 75 186 0.9 6.1 0.13 0.22 0.22 89 1011.4
20260831200046 75 136 1.7 5.2 0.13 0.22 0.22 89 1011.3
20260831195548 74 127 0.0 5.2 0.13 0.22 0.22 92 1011.1
20260831195048 73 116 0.9 5.2 0.13 0.22 0.22 92 1011.1
20260831194555 73 167 1.7 5.2 0.13 0.22 0.22 91 1011.3
20260831194045 73 43 2.6 0.0 0.00 0.00 0.22 91 1011.3
20260831193544 74 127 2.6 6.1 0.15 0.21 0.21 90 1011.0
20260831193050 74 184 0.9 6.1 0.09 0.15 0.15 90 1012.3
20260831192544 74 156 2.6 8.7 0.12 0.15 0.15 88 1012.0
20260831192042 75 128 2.6 6.1 0.10 0.11 0.11 87 1011.8
20260831191549 75 181 2.6 7.0 0.08 0.09 0.09 88 1011.8
20260831191043 75 128 2.6 7.0 0.08 0.09 0.09 88 1012.0
20260831190541 75 107 1.7 6.1 0.08 0.09 0.09 90 1011.9
20260831190043 75 99 1.7 5.2 0.08 0.09 0.09 91 1012.2
20260831185541 74 136 2.6 5.2 0.08 0.09 0.09 92 1012.3
20260831185040 74 155 1.7 5.2 0.08 0.09 0.09 92 1012.2
20260831184540 75 86 1.7 3.5 0.08 0.09 0.09 90 1013.1
20260831184041 76 80 0.0 1.7 0.05 0.06 0.06 89 1013.1
20260831183540 77 83 0.0 1.7 0.05 0.06 0.06 87 1013.1
20260831183040 79 83 0.9 2.6 0.05 0.06 0.06 81 1012.8
20260831182538 80 285 1.7 2.6 0.01 0.02 0.02 75 1013.3
20260831182038 80 261 0.9 3.5 0.00 0.01 0.01 74 1013.0
20260831181541 80 282 0.9 7.0 0.00 0.01 0.01 73 1012.6
20260831181038 80 220 1.7 6.1 0.00 0.01 0.01 72 1012.1
20260831180536 81 157 1.7 5.2 0.00 0.01 0.01 71 1012.2
20260831180040 81 282 1.7 11.3 0.00 0.01 0.01 70 1012.3
20260831175540 82 112 5.2 11.3 0.00 0.01 0.01 68 1012.4
20260831175037 82 263 2.6 12.2 0.00 0.01 0.01 68 1012.4
20260831174536 82 216 4.3 13.9 0.00 0.01 0.01 66 1012.5
20260831174035 83 224 4.3 12.2 0.00 0.01 0.01 67 1012.5
20260831173535 83 232 3.5 15.6 0.00 0.01 0.01 68 1012.4
20260831173040 82 217 7.8 15.6 0.00 0.01 0.01 69 1012.6
20260831172531 82 225 3.5 11.3 0.00 0.01 0.01 71 1012.8
20260831172032 81 136 3.5 11.3 0.00 0.01 0.01 74 1012.8
20260831171529 80 203 3.5 8.7 0.00 0.01 0.01 74 1012.8
20260831171028 80 244 3.5 10.4 0.00 0.01 0.01 74 1012.7
20260831170528 80 217 4.3 11.3 0.00 0.01 0.01 74 1012.6
20260831170026 80 255 2.6 11.3 0.00 0.01 0.01 77 1012.9
20260831165525 79 247 4.3 9.6 0.00 0.01 0.01 77 1013.0
20260831165023 78 217 4.3 9.6 0.00 0.01 0.01 77 1013.0
20260831164525 78 191 2.6 8.7 0.00 0.01 0.01 78 1013.1
20260831164022 77 146 3.5 8.7 0.00 0.01 0.01 78 1013.2
20260831163524 77 246 2.6 7.8 0.00 0.01 0.01 80 1013.3
20260831163020 77 219 3.5 7.8 0.00 0.01 0.01 81 1013.4
20260831162523 77 169 3.5 7.8 0.00 0.01 0.01 81 1013.3
20260831162018 76 221 2.6 7.0 0.00 0.01 0.01 82 1013.4
20260831161517 76 216 3.5 9.6 0.00 0.01 0.01 82 1013.5
20260831161015 75 257 2.6 7.8 0.00 0.01 0.01 84 1013.6
20260831160515 75 229 2.6 8.7 0.00 0.01 0.01 84 1013.6
20260831160025 75 234 3.5 8.7 0.00 0.01 0.01 84 1013.7
20260831155514 75 150 3.5 7.0 0.00 0.01 0.01 85 1013.7
20260831155015 74 267 2.6 6.1 0.00 0.01 0.01 86 1013.7
20260831154512 74 247 1.7 5.2 0.00 0.01 0.01 86 1013.7
20260831154012 74 160 1.7 7.0 0.00 0.01 0.01 87 1013.8
20260831153511 73 186 0.9 9.6 0.00 0.01 0.01 86 1013.8
20260831153011 73 152 4.3 9.6 0.01 0.01 0.01 86 1013.9
20260831152512 73 203 2.6 7.0 0.01 0.01 0.01 86 1013.9
20260831152011 73 138 1.7 7.8 0.01 0.01 0.01 86 1013.9
20260831151511 73 138 3.5 8.7 0.01 0.01 0.01 87 1014.0
20260831151013 73 136 2.6 8.7 0.01 0.01 0.01 87 1013.9
20260831150511 72 212 3.5 9.6 0.01 0.01 0.01 88 1014.1
20260831150012 72 160 2.6 9.6 0.01 0.01 0.01 89 1013.9
20260831145510 72 130 1.7 5.2 0.01 0.04 0.01 89 1014.0
20260831145010 73 163 2.6 5.2 0.01 0.04 0.01 88 1014.3
20260831144512 73 102 0.9 3.5 0.01 0.04 0.01 87 1014.6
20260831144010 73 134 0.9 3.5 0.01 0.04 0.01 85 1014.7
20260831143509 74 159 0.0 2.6 0.01 0.04 0.01 85 1014.7
20260831143011 74 123 0.9 2.6 0.00 0.03 0.00 84 1014.5
20260831142509 74 151 0.0 2.6 0.00 0.03 0.00 85 1014.4
20260831142008 74 162 0.0 5.2 0.00 0.03 0.00 85 1014.3
20260831141509 74 121 2.6 5.2 0.00 0.03 0.00 85 1014.0
20260831141006 74 124 0.9 3.5 0.00 0.03 0.00 85 1014.0
20260831140507 74 184 0.0 4.3 0.00 0.03 0.00 85 1014.2
20260831140006 74 153 0.9 4.3 0.00 0.03 0.00 85 1014.0
20260831135506 74 129 0.9 3.5 0.00 0.26 0.00 85 1014.1
20260831135006 74 158 0.0 3.5 0.00 0.26 0.00 84 1014.2
20260831134506 74 117 0.0 1.7 0.00 0.26 0.00 84 1014.0
20260831134007 74 139 0.0 5.2 0.00 0.26 0.00 84 1014.1
20260831133505 74 121 1.7 4.3 0.00 0.26 0.00 84 1014.0
20260831133005 74 286 0.0 5.2 0.00 0.26 0.00 84 1014.2
20260831132505 74 285 1.7 5.2 0.00 0.26 0.00 84 1014.2
20260831132005 74 211 0.9 5.2 0.00 0.26 0.00 84 1014.0
20260831131505 74 234 1.7 5.2 0.00 0.26 0.00 83 1014.1
20260831131005 74 117 1.7 6.1 0.00 0.26 0.00 83 1013.9
20260831130504 74 84 0.9 6.1 0.00 0.26 0.00 83 1013.9
20260831130004 74 247 1.7 7.0 0.00 0.26 0.00 83 1013.9
20260831125503 74 252 3.5 7.0 0.00 0.60 0.00 82 1013.8